{"data":{"norad_id":47823,"intl_designator":"2021-018AN","name":"STARLINK-2408","alt_names":[],"object_type":"PAYLOAD","status":"ACTIVE","operator":null,"country":"US","launch_date":"2021-03-11","launch_site_code":"AFETR","launch_vehicle":null,"mission":null,"orbit_class":"UNKNOWN","rcs_meters":null,"size_class":null,"mass_kg":null,"dimensions":null,"purposes":["comms"],"wikipedia_slug":null,"has_3d_model":false,"image_url":null,"decayed_at":null,"tle_current":{"epoch":"2026-05-25T00:43:29.813088Z","epoch_age_seconds":82917,"freshness":"FRESH","line1":"1 47823U 21018AN  26145.03020617  .00006209  00000+0  21165-3 0  9997","line2":"2 47823  53.1585 262.9918 0001741  79.5358 280.5840 15.31706387288196","mean_motion":15.31706387,"eccentricity":0.0001741,"inclination_deg":53.1585,"raan_deg":262.9918,"arg_perigee_deg":79.5358,"mean_anomaly_deg":280.584,"bstar":0.00021165,"rev_number":28819,"period_min":94.01279593933,"perigee_km":469.52856980702,"apogee_km":471.91334214729,"semimajor_km":6848.8579559772,"source":"CELESTRAK","updated_at":"2026-05-25T13:38:16.603955Z"}}}